NWS Regional Weather Roundup - New England Area

843
ASUS41 KBOX 190810
RWRBOX

REGIONAL WEATHER ROUNDUP
NATIONAL WEATHER SERVICE BOSTON/NORTON MA
400 AM EDT SAT OCT 19 2019

NOTE:  "FAIR" INDICATES FEW OR NO CLOUDS BELOW 12,000 FEET WITH NO
SIGNIFICANT WEATHER AND/OR OBSTRUCTIONS TO VISIBILITY.

MAZALL-190900-
EASTERN MASSACHUSETTS

CITY           SKY/WX    TMP DP  RH WIND       PRES   REMARKS
BOSTON         FAIR      46  34  62 W9        29.96S
BEVERLY        FAIR      40  33  76 W6        29.94S
LAWRENCE       FAIR      40  33  76 VRB5      29.97R
BEDFORD        FAIR      39  32  76 SW5       29.95S
BLUE HILL      NOT AVBL
NORWOOD        FAIR      37  32  82 CALM      29.97R
MARSHFIELD     FAIR      41  37  87 W5        29.95S
PLYMOUTH       FAIR      39  36  89 W6        29.95S
TAUNTON        FAIR      38  34  85 CALM      29.96S
NEW BEDFORD    FAIR      41  35  79 W7        29.96S
$$

MAZALL-190900-
CAPE COD AND THE ISLANDS

CITY           SKY/WX    TMP DP  RH WIND       PRES   REMARKS
FALMOUTH       CLEAR     41  37  87 NW6       29.95S
HYANNIS        FAIR      44  36  73 W6        29.94R
CHATHAM        NOT AVBL
PROVINCETOWN   FAIR      48  39  71 NW15G22     N/A
NANTUCKET      FAIR      48  37  65 NW14      29.94S
MARTHAS VNYRD  FAIR      46  38  73 NW5       29.96R
$$

MAZALL-190900-
CENTRAL AND WESTERN MASSACHUSETTS

CITY           SKY/WX    TMP DP  RH WIND       PRES   REMARKS
WORCESTER      FAIR      36  32  85 W5        29.95S
FITCHBURG      FAIR      34  32  92 CALM      29.97S
ORANGE         FAIR      33  30  88 CALM      29.98S
SPRINGFIELD    FAIR      36  32  85 CALM      29.98R
WESTFIELD      FAIR      33  31  92 CALM      29.99S
NORTH ADAMS    FAIR      35  31  85 NW3       30.01S
PITTSFIELD     FAIR      39  32  76 CALM      29.98R
$$

RIZALL-190900-
RHODE ISLAND

CITY           SKY/WX    TMP DP  RH WIND       PRES   REMARKS
PROVIDENCE     FAIR      41  36  82 NW7       29.98S
NEWPORT        FAIR      46  35  65 NW12      29.97S
BLOCK ISLAND   FAIR      46  36  68 NW9       30.00S
SMITHFIELD     FAIR     N/A N/A N/A W6        29.97S
WESTERLY       FAIR      41  38  89 CALM      30.00S
$$

CTZALL-190900-
CONNECTICUT

CITY           SKY/WX    TMP DP  RH WIND       PRES   REMARKS
BRADLEY INTL   FAIR      38  33  82 W5        30.00S
HARTFORD       FAIR      42  34  73 CALM      30.01S
BRIDGEPORT     FAIR      42  35  76 NW6       30.02S
DANBURY        FAIR      34  32  92 SW3       30.02S
GROTON         FAIR      44  36  73 CALM      30.00R
NEW HAVEN      FAIR      41  33  73 CALM      30.01F
CHESTER        FAIR      39  36  87 CALM      30.00S
MERIDEN        FAIR      35  34  96 CALM      30.01S
WILLIMANTIC    FAIR      38  34  85 CALM      30.00S
OXFORD         FAIR      37  33  85 NW3       30.00S
$$

MEZ002-015-021-024-NHZ003-005-008-011-012-014-VTZ005-008-190900-
NORTHERN NEW ENGLAND

CITY           SKY/WX    TMP DP  RH WIND       PRES   REMARKS
PORTLAND ME    FAIR      40  34  79 W7        29.91R
BANGOR ME      FAIR      45  37  73 W7        29.83R
CONCORD NH     FAIR      41  32  70 NW8       29.94S
MANCHESTER NH  FAIR      44  33  65 NW7       29.94R
NASHUA NH      FAIR      37  34  89 NW3       29.97R
PORTSMOUTH NH  CLEAR     42  35  75 W7        29.91S
JAFFREY NH     FAIR      41  31  67 VRB6      29.94F
KEENE NH       FAIR      36  34  92 CALM      29.97S
BURLINGTON VT  CLOUDY    44  32  62 W8        30.01R
MT. WASHINGTON FOG       21  21 100 NW61        N/A  VSB 1/16WCI  -3
$$

NYZ052-076-190900-
EASTERN NEW YORK

CITY           SKY/WX    TMP DP  RH WIND       PRES   REMARKS
ALBANY         CLOUDY    45  37  73 CALM      30.04S
NEW YORK CITY  FAIR      48  35  60 N6        30.02F
$$

ANZALL-190900-
MARINE OBSERVATIONS

STATION/POSITION TIME  TEMP    WIND        PRES    VSBY  WAVE
                       AIR SEA DIR/SP/G                  HT/PER
                 (UTC) (F)     (DEG/KT/KT) (MB)    (MI)  (FT/S)
BOSTON BUOY      0750   49 56  300/ 17/ 21 1012.8S         2/ 3
BUZZARDS BAY     0700   48     320/ 18/ 21 1015.2R
NANTUCKET SOUND  0740      56                N/A           2/ 3
MASS BAY-STELLWA 0704   48 55  300/ 16/ 19 1012.7S  1 7/8  2/ 3
ISLE OF SHOALS   0700   46     280/ 15/ 17 1012.7R
S OF BLOCK IS    0800      61                N/A           4/ 4
$$

......................KEY.........................
  SKY/WX - SKY CONDITION/PRESENT WEATHER
  TMP    - TEMPERATURE IN FAHRENHEIT
  DWPT   - DEWPOINT IN FAHRENHEIT
  RH     - RELATIVE HUMIDITY IN PERCENT
  WIND   - DIRECTION AND SPEED IN MPH
  PRES   - MEAN SEA LEVEL PRESSURE IN INCHES OF HG
  WCI    - WIND CHILL INDEX
  VSB    - VISIBILITY IN MILES
  HX     - HEAT INDEX
  TC     - TEMPERATURE IN CELSIUS
  VRB    - VARIABLE WIND DIRECTION
  N/A    - NOT AVAILABLE

NWS BOX Regional Weather Roundup - New England Area